QPF
0.00 0.00 0.00 0.00 0.01 0.00 0.00 0.00 0.00 0.00 0.00 0.00 0.00 0.00 0.00 0.00 0.00 0.00 0.00 0.00 0.00 0.00 0.00 0.00 0.00 0.00 0.00 0.00 0.00 0.00 0.00 0.00 0.00 0.00 0.00 0.00 0.00 0.00 0.00 0.00 0.00 0.00 0.00 0.00 0.00 0.00 0.00 0.00 0.00
0.00 0.00 0.00 0.00 0.01 0.00 0.00 0.00 0.00 0.00 0.00 0.00 0.00 0.00 0.00 0.00 0.00 0.00 0.00 0.00 0.00 0.00 0.00 0.00 0.00 0.00 0.00 0.00 0.00 0.00 0.00 0.00 0.00 0.00 0.00 0.00 0.00 0.00 0.00 0.00 0.00 0.00 0.00 0.00 0.00 0.00 0.00 0.00 0.00
0.00 0.00 0.00 0.00 0.00 0.00 0.00 0.00 0.00 0.00 0.00 0.00 0.00 0.00 0.00 0.00 0.00 0.00 0.00 0.00 0.00 0.00 0.00 0.00 0.00 0.00 0.00 0.00 0.00 0.00 0.00 0.00 0.00 0.00 0.00 0.00 0.00 0.00 0.00 0.00 0.00 0.00 0.00 0.00 0.00 0.00 0.00 0.00 0.00
0.00 0.00 0.00 0.00 0.00 0.00 0.00 0.00 0.00 0.00 0.00 0.00 0.00 0.00 0.00 0.00 0.00 0.00 0.00 0.00 0.00 0.00 0.00 0.00 0.00 0.00 0.00 0.00 0.00 0.00 0.00 0.00 0.00 0.00 0.00 0.00 0.00 0.00 0.00 0.00 0.00 0.00 0.00 0.00 0.00 0.00 0.00 0.00 0.00
0.00 0.00 0.00 0.00 0.00 0.00 0.00 0.00 0.00 0.00 0.00 0.00 0.00 0.00 0.00 0.00 0.00 0.00 0.00 0.00 0.00 0.00 0.00 0.00 0.00 0.00 0.00 0.00 0.00 0.00 0.00 0.00 0.00 0.00 0.00 0.00 0.00 0.00 0.00 0.00 0.00 0.00 0.00 0.00 0.00 0.00 0.00 0.00 0.00
0.00 0.00 0.00 0.00 0.00 0.00 0.00 0.00 0.00 0.00 0.00 0.00 0.00 0.00 0.00 0.00 0.00 0.00 0.00 0.00 0.00 0.00 0.00 0.00 0.00 0.00 0.00 0.00 0.00 0.00 0.00 0.00 0.00 0.00 0.00 0.00 0.00 0.00 0.00 0.00 0.00 0.00 0.00 0.00 0.00 0.00 0.00 0.00 0.00
0.00 0.00 0.00 0.00 0.00 0.00 0.00 0.00 0.00 0.00 0.00 0.00 0.00 0.00 0.00 0.00 0.00 0.00 0.00 0.00 0.00 0.00 0.00 0.00 0.00 0.00 0.00 0.00 0.00 0.00 0.00 0.00 0.00 0.00 0.00 0.00 0.00 0.00 0.00 0.00 0.00 0.00 0.00 0.00 0.00 0.00 0.00 0.00 0.00
0.00 0.00 0.00 0.00 0.00 0.00 0.00 0.00 0.00 0.00 0.00 0.00 0.00 0.00 0.00 0.00 0.00 0.00 0.00 0.00 0.00 0.00 0.00 0.00 0.01 0.01 0.01 0.00 0.00 0.00 0.00 0.00 0.00 0.00 0.00 0.00 0.00 0.00 0.00 0.00 0.00 0.01 0.01 0.02 0.02 0.02 0.02 0.01 0.01
0.00 0.00 0.00 0.00 0.00 0.00 0.00 0.00 0.00 0.00 0.00 0.00 0.00 0.00 0.00 0.00 0.00 0.00 0.00 0.00 0.00 0.00 0.00 0.01 0.01 0.01 0.01 0.01 0.00 0.01 0.01 0.01 0.01 0.01 0.01 0.01 0.01 0.01 0.01 0.01 0.01 0.02 0.03 0.04 0.05 0.06 0.06 0.06 0.04
0.00 0.00 0.00 0.00 0.00 0.00 0.00 0.00 0.00 0.00 0.00 0.00 0.00 0.00 0.00 0.00 0.00 0.00 0.00 0.00 0.00 0.00 0.00 0.01 0.01 0.01 0.01 0.01 0.01 0.02 0.02 0.02 0.02 0.03 0.03 0.03 0.03 0.03 0.02 0.01 0.02 0.03 0.05 0.08 0.09 0.11 0.09 0.07 0.06
0.00 0.00 0.00 0.00 0.00 0.00 0.00 0.00 0.00 0.00 0.00 0.00 0.00 0.00 0.00 0.00 0.00 0.00 0.00 0.00 0.00 0.00 0.00 0.01 0.01 0.02 0.02 0.02 0.02 0.02 0.03 0.04 0.04 0.04 0.04 0.05 0.05 0.04 0.03 0.04 0.04 0.05 0.07 0.09 0.12 0.14 0.08 0.10 0.11
0.00 0.00 0.00 0.00 0.00 0.00 0.00 0.00 0.00 0.00 0.00 0.00 0.00 0.00 0.00 0.00 0.00 0.00 0.00 0.00 0.00 0.00 0.00 0.00 0.01 0.02 0.02 0.03 0.02 0.02 0.03 0.03 0.03 0.04 0.05 0.06 0.06 0.06 0.06 0.07 0.07 0.08 0.10 0.15 0.18 0.16 0.15 0.16 0.14
0.00 0.00 0.00 0.00 0.00 0.00 0.00 0.00 0.00 0.00 0.00 0.00 0.00 0.00 0.00 0.00 0.00 0.00 0.00 0.00 0.01 0.00 0.00 0.01 0.01 0.01 0.02 0.03 0.03 0.03 0.04 0.04 0.05 0.06 0.07 0.07 0.09 0.10 0.11 0.11 0.12 0.13 0.14 0.16 0.18 0.18 0.17 0.20 0.18
0.00 0.00 0.00 0.00 0.00 0.00 0.00 0.00 0.00 0.00 0.00 0.00 0.00 0.00 0.00 0.00 0.00 0.01 0.01 0.01 0.01 0.01 0.02 0.02 0.02 0.01 0.02 0.03 0.04 0.04 0.04 0.06 0.08 0.09 0.09 0.10 0.14 0.15 0.15 0.15 0.15 0.15 0.15 0.17 0.18 0.17 0.18 0.18 0.16
0.00 0.00 0.00 0.00 0.00 0.00 0.00 0.00 0.00 0.00 0.00 0.00 0.00 0.00 0.00 0.00 0.00 0.01 0.02 0.02 0.02 0.03 0.04 0.04 0.05 0.05 0.07 0.08 0.08 0.09 0.09 0.08 0.10 0.10 0.11 0.12 0.14 0.16 0.18 0.17 0.16 0.14 0.13 0.15 0.16 0.14 0.15 0.12 0.10
0.00 0.00 0.00 0.00 0.00 0.00 0.00 0.00 0.00 0.00 0.00 0.00 0.00 0.00 0.00 0.00 0.01 0.01 0.01 0.02 0.03 0.04 0.06 0.09 0.11 0.10 0.11 0.13 0.12 0.13 0.13 0.15 0.16 0.14 0.13 0.14 0.17 0.19 0.23 0.21 0.18 0.14 0.12 0.12 0.11 0.09 0.09 0.08 0.09
0.00 0.00 0.00 0.00 0.00 0.00 0.00 0.00 0.00 0.00 0.00 0.00 0.00 0.00 0.01 0.01 0.01 0.02 0.02 0.02 0.03 0.04 0.06 0.09 0.11 0.11 0.13 0.14 0.16 0.20 0.24 0.25 0.25 0.22 0.18 0.18 0.23 0.27 0.29 0.27 0.21 0.17 0.16 0.15 0.12 0.09 0.07 0.06 0.06
0.00 0.00 0.00 0.00 0.00 0.00 0.00 0.00 0.00 0.00 0.00 0.00 0.01 0.01 0.01 0.02 0.02 0.02 0.02 0.03 0.03 0.04 0.05 0.08 0.10 0.11 0.14 0.16 0.21 0.28 0.32 0.33 0.33 0.32 0.30 0.28 0.28 0.30 0.28 0.23 0.17 0.17 0.17 0.14 0.12 0.09 0.07 0.06 0.05
0.00 0.00 0.00 0.00 0.00 0.00 0.00 0.00 0.00 0.00 0.00 0.01 0.01 0.01 0.02 0.03 0.03 0.03 0.02 0.03 0.03 0.03 0.04 0.06 0.08 0.13 0.16 0.19 0.20 0.25 0.33 0.38 0.35 0.34 0.36 0.34 0.31 0.26 0.22 0.20 0.16 0.11 0.10 0.08 0.07 0.07 0.06 0.04 0.04
0.00 0.00 0.00 0.00 0.00 0.00 0.00 0.00 0.00 0.00 0.01 0.01 0.01 0.01 0.02 0.03 0.03 0.02 0.02 0.02 0.03 0.02 0.03 0.04 0.07 0.15 0.21 0.19 0.15 0.14 0.20 0.24 0.24 0.24 0.27 0.31 0.29 0.24 0.19 0.16 0.14 0.10 0.08 0.06 0.05 0.05 0.04 0.04 0.03
0.00 0.00 0.00 0.00 0.00 0.00 0.00 0.01 0.00 0.00 0.00 0.01 0.01 0.01 0.02 0.02 0.02 0.02 0.02 0.02 0.02 0.02 0.02 0.04 0.06 0.07 0.10 0.11 0.11 0.10 0.11 0.11 0.12 0.15 0.18 0.19 0.19 0.18 0.16 0.16 0.15 0.10 0.07 0.06 0.05 0.05 0.04 0.03 0.03
0.00 0.00 0.00 0.00 0.00 0.00 0.00 0.01 0.01 0.00 0.00 0.01 0.01 0.01 0.01 0.01 0.01 0.01 0.01 0.01 0.01 0.01 0.01 0.01 0.02 0.03 0.03 0.05 0.05 0.04 0.04 0.04 0.07 0.11 0.13 0.12 0.13 0.15 0.14 0.11 0.10 0.09 0.08 0.06 0.04 0.04 0.05 0.04 0.03
0.00 0.00 0.00 0.00 0.00 0.00 0.00 0.01 0.01 0.00 0.00 0.00 0.01 0.00 0.01 0.01 0.01 0.00 0.00 0.00 0.00 0.00 0.00 0.00 0.00 0.01 0.01 0.01 0.01 0.02 0.03 0.03 0.04 0.06 0.09 0.10 0.11 0.12 0.11 0.09 0.08 0.07 0.07 0.06 0.04 0.04 0.04 0.04 0.03
0.00 0.00 0.00 0.00 0.00 0.00 0.00 0.01 0.02 0.01 0.01 0.00 0.01 0.00 0.01 0.01 0.00 0.00 0.00 0.00 0.00 0.00 0.00 0.00 0.01 0.01 0.01 0.00 0.00 0.00 0.01 0.02 0.03 0.03 0.05 0.06 0.08 0.10 0.11 0.10 0.09 0.07 0.07 0.06 0.05 0.05 0.05 0.05 0.04
0.01 0.00 0.00 0.00 0.00 0.01 0.00 0.01 0.03 0.01 0.00 0.01 0.01 0.01 0.01 0.00 0.00 0.00 0.00 0.00 0.00 0.00 0.00 0.00 0.01 0.01 0.00 0.00 0.00 0.00 0.00 0.01 0.01 0.02 0.03 0.04 0.04 0.05 0.07 0.08 0.09 0.09 0.11 0.10 0.08 0.06 0.06 0.06 0.06
0.01 0.00 0.00 0.01 0.00 0.01 0.00 0.03 0.02 0.01 0.01 0.01 0.01 0.01 0.00 0.00 0.00 0.00 0.00 0.00 0.00 0.00 0.00 0.00 0.00 0.00 0.00 0.00 0.00 0.00 0.00 0.00 0.00 0.00 0.01 0.01 0.02 0.03 0.04 0.04 0.05 0.06 0.08 0.10 0.11 0.11 0.10 0.10 0.08
0.00 0.00 0.00 0.00 0.00 0.01 0.01 0.02 0.02 0.01 0.01 0.01 0.01 0.01 0.00 0.00 0.00 0.00 0.00 0.00 0.00 0.00 0.00 0.00 0.00 0.00 0.00 0.00 0.00 0.01 0.00 0.00 0.00 0.00 0.00 0.00 0.00 0.01 0.02 0.03 0.03 0.04 0.05 0.06 0.08 0.11 0.13 0.14 0.13
0.00 0.00 0.00 0.01 0.02 0.02 0.02 0.05 0.07 0.03 0.02 0.01 0.00 0.00 0.00 0.00 0.00 0.00 0.00 0.00 0.00 0.00 0.00 0.00 0.00 0.00 0.00 0.00 0.00 0.00 0.00 0.00 0.00 0.00 0.00 0.00 0.00 0.00 0.00 0.01 0.02 0.03 0.04 0.05 0.06 0.08 0.10 0.12 0.14
0.00 0.00 0.00 0.00 0.01 0.02 0.02 0.03 0.02 0.01 0.01 0.01 0.00 0.00 0.00 0.00 0.00 0.00 0.00 0.00 0.00 0.00 0.00 0.00 0.00 0.00 0.00 0.00 0.00 0.00 0.00 0.00 0.00 0.00 0.00 0.00 0.00 0.00 0.00 0.00 0.00 0.01 0.01 0.03 0.04 0.05 0.07 0.10 0.12
0.00 0.00 0.00 0.01 0.01 0.01 0.01 0.01 0.00 0.00 0.00 0.00 0.00 0.00 0.00 0.00 0.00 0.00 0.00 0.00 0.00 0.00 0.00 0.00 0.00 0.00 0.00 0.00 0.00 0.00 0.00 0.00 0.01 0.01 0.01 0.00 0.00 0.00 0.00 0.00 0.00 0.00 0.00 0.01 0.01 0.02 0.04 0.06 0.09
MSLP
1012.52 1013.24 1013.85 1014.22 1014.27 1013.94 1013.28 1012.38 1011.37 1010.40 1009.60 1009.05 1008.74 1008.63 1008.64 1008.68 1008.67 1008.60 1008.49 1008.41 1008.42 1008.61 1008.99 1009.55 1010.22 1010.91 1011.50 1011.94 1012.20 1012.30 1012.30 1012.30 1012.39 1012.60 1012.95 1013.40 1013.89 1014.35 1014.71 1014.94 1015.05 1015.09 1015.11 1015.17 1015.31 1015.52 1015.80 1016.09 1016.35
1012.63 1013.34 1013.90 1014.19 1014.11 1013.66 1012.88 1011.86 1010.75 1009.72 1008.88 1008.31 1008.01 1007.94 1008.00 1008.10 1008.16 1008.17 1008.13 1008.11 1008.18 1008.42 1008.85 1009.45 1010.17 1010.90 1011.54 1012.04 1012.36 1012.51 1012.57 1012.61 1012.70 1012.90 1013.22 1013.62 1014.05 1014.44 1014.73 1014.92 1015.00 1015.03 1015.06 1015.15 1015.31 1015.56 1015.87 1016.17 1016.43
1012.78 1013.42 1013.87 1014.02 1013.81 1013.23 1012.34 1011.25 1010.11 1009.06 1008.24 1007.71 1007.46 1007.43 1007.54 1007.69 1007.81 1007.86 1007.87 1007.89 1008.01 1008.29 1008.75 1009.38 1010.14 1010.91 1011.60 1012.16 1012.54 1012.75 1012.86 1012.94 1013.05 1013.23 1013.51 1013.85 1014.21 1014.52 1014.76 1014.90 1014.96 1014.99 1015.04 1015.16 1015.36 1015.64 1015.96 1016.26 1016.51
1012.94 1013.45 1013.74 1013.73 1013.37 1012.67 1011.71 1010.60 1009.48 1008.49 1007.75 1007.29 1007.11 1007.15 1007.31 1007.50 1007.65 1007.73 1007.76 1007.81 1007.95 1008.25 1008.73 1009.38 1010.15 1010.94 1011.67 1012.27 1012.69 1012.96 1013.12 1013.22 1013.34 1013.52 1013.76 1014.04 1014.33 1014.59 1014.77 1014.88 1014.93 1014.98 1015.06 1015.21 1015.44 1015.74 1016.07 1016.36 1016.57
1013.06 1013.40 1013.50 1013.31 1012.81 1012.02 1011.03 1009.95 1008.90 1008.03 1007.41 1007.07 1006.98 1007.09 1007.29 1007.50 1007.66 1007.76 1007.80 1007.87 1008.02 1008.33 1008.81 1009.46 1010.22 1011.00 1011.73 1012.34 1012.78 1013.08 1013.26 1013.38 1013.51 1013.67 1013.88 1014.12 1014.37 1014.58 1014.73 1014.83 1014.89 1014.97 1015.08 1015.27 1015.54 1015.85 1016.17 1016.43 1016.60
1013.10 1013.24 1013.15 1012.79 1012.16 1011.31 1010.34 1009.34 1008.42 1007.70 1007.22 1007.00 1007.02 1007.18 1007.42 1007.64 1007.81 1007.90 1007.95 1008.02 1008.18 1008.49 1008.96 1009.58 1010.31 1011.06 1011.76 1012.33 1012.76 1013.05 1013.24 1013.36 1013.49 1013.64 1013.83 1014.05 1014.26 1014.45 1014.60 1014.70 1014.79 1014.90 1015.06 1015.28 1015.57 1015.88 1016.18 1016.42 1016.54
1013.01 1012.97 1012.69 1012.18 1011.47 1010.62 1009.70 1008.81 1008.05 1007.49 1007.16 1007.06 1007.15 1007.36 1007.61 1007.83 1007.99 1008.08 1008.13 1008.21 1008.38 1008.68 1009.14 1009.73 1010.40 1011.08 1011.71 1012.23 1012.61 1012.87 1013.03 1013.15 1013.26 1013.40 1013.58 1013.79 1013.99 1014.18 1014.33 1014.46 1014.58 1014.72 1014.92 1015.16 1015.46 1015.77 1016.04 1016.24 1016.33
1012.78 1012.58 1012.16 1011.55 1010.81 1009.98 1009.15 1008.41 1007.80 1007.40 1007.20 1007.20 1007.34 1007.56 1007.80 1008.00 1008.14 1008.22 1008.28 1008.38 1008.56 1008.87 1009.31 1009.85 1010.46 1011.06 1011.60 1012.04 1012.35 1012.55 1012.68 1012.77 1012.87 1013.01 1013.18 1013.37 1013.58 1013.76 1013.93 1014.07 1014.22 1014.39 1014.60 1014.86 1015.16 1015.45 1015.70 1015.87 1015.92
1012.43 1012.11 1011.60 1010.95 1010.22 1009.46 1008.76 1008.16 1007.70 1007.43 1007.34 1007.39 1007.54 1007.74 1007.94 1008.11 1008.22 1008.30 1008.38 1008.50 1008.71 1009.02 1009.45 1009.95 1010.49 1011.00 1011.45 1011.79 1012.02 1012.16 1012.24 1012.31 1012.39 1012.51 1012.67 1012.86 1013.06 1013.25 1013.41 1013.56 1013.72 1013.90 1014.11 1014.37 1014.65 1014.93 1015.15 1015.29 1015.32
1011.98 1011.59 1011.05 1010.42 1009.75 1009.11 1008.55 1008.10 1007.78 1007.62 1007.58 1007.64 1007.77 1007.92 1008.06 1008.18 1008.27 1008.34 1008.44 1008.60 1008.84 1009.17 1009.58 1010.04 1010.52 1010.95 1011.30 1011.55 1011.70 1011.78 1011.81 1011.84 1011.91 1012.01 1012.16 1012.33 1012.51 1012.68 1012.83 1012.97 1013.11 1013.28 1013.48 1013.72 1013.98 1014.23 1014.43 1014.55 1014.57
1011.48 1011.08 1010.57 1010.01 1009.46 1008.96 1008.56 1008.25 1008.06 1007.96 1007.95 1008.00 1008.07 1008.15 1008.22 1008.28 1008.34 1008.42 1008.53 1008.72 1008.99 1009.33 1009.74 1010.17 1010.58 1010.93 1011.20 1011.37 1011.45 1011.48 1011.47 1011.47 1011.51 1011.59 1011.72 1011.86 1012.01 1012.14 1012.26 1012.36 1012.47 1012.60 1012.77 1012.98 1013.21 1013.44 1013.62 1013.74 1013.77
1011.00 1010.63 1010.20 1009.76 1009.35 1009.02 1008.78 1008.62 1008.53 1008.49 1008.49 1008.50 1008.51 1008.51 1008.51 1008.51 1008.54 1008.61 1008.74 1008.95 1009.24 1009.59 1009.97 1010.36 1010.72 1011.00 1011.20 1011.30 1011.33 1011.31 1011.27 1011.24 1011.26 1011.31 1011.39 1011.49 1011.59 1011.67 1011.73 1011.78 1011.84 1011.93 1012.06 1012.23 1012.44 1012.65 1012.84 1012.96 1013.01
1010.58 1010.28 1009.95 1009.66 1009.43 1009.28 1009.20 1009.18 1009.19 1009.20 1009.20 1009.17 1009.12 1009.05 1008.98 1008.93 1008.93 1008.99 1009.13 1009.34 1009.63 1009.97 1010.32 1010.67 1010.96 1011.18 1011.31 1011.36 1011.35 1011.29 1011.22 1011.17 1011.14 1011.15 1011.19 1011.23 1011.27 1011.29 1011.28 1011.27 1011.28 1011.32 1011.41 1011.56 1011.75 1011.95 1012.15 1012.30 1012.38
1010.27 1010.06 1009.86 1009.72 1009.67 1009.69 1009.78 1009.89 1009.98 1010.04 1010.04 1009.99 1009.90 1009.78 1009.67 1009.59 1009.56 1009.61 1009.73 1009.93 1010.19 1010.49 1010.79 1011.07 1011.30 1011.45 1011.53 1011.53 1011.48 1011.39 1011.29 1011.20 1011.14 1011.10 1011.08 1011.06 1011.02 1010.97 1010.90 1010.84 1010.79 1010.79 1010.86 1010.98 1011.17 1011.39 1011.61 1011.80 1011.93
1010.09 1009.95 1009.88 1009.89 1010.01 1010.20 1010.43 1010.65 1010.83 1010.94 1010.96 1010.90 1010.79 1010.65 1010.52 1010.42 1010.38 1010.41 1010.51 1010.68 1010.89 1011.12 1011.34 1011.55 1011.69 1011.78 1011.80 1011.76 1011.67 1011.55 1011.42 1011.29 1011.18 1011.08 1010.99 1010.90 1010.79 1010.68 1010.55 1010.44 1010.36 1010.34 1010.39 1010.51 1010.71 1010.95 1011.21 1011.45 1011.64
1010.01 1009.95 1009.98 1010.13 1010.39 1010.72 1011.07 1011.39 1011.65 1011.80 1011.85 1011.80 1011.70 1011.56 1011.43 1011.34 1011.29 1011.31 1011.38 1011.49 1011.64 1011.78 1011.92 1012.03 1012.10 1012.11 1012.07 1011.99 1011.86 1011.71 1011.54 1011.37 1011.20 1011.04 1010.88 1010.71 1010.54 1010.37 1010.20 1010.06 1009.96 1009.93 1009.98 1010.11 1010.33 1010.61 1010.91 1011.20 1011.45
1010.01 1010.01 1010.14 1010.39 1010.76 1011.19 1011.63 1012.03 1012.33 1012.52 1012.60 1012.58 1012.49 1012.38 1012.28 1012.20 1012.17 1012.17 1012.21 1012.27 1012.34 1012.40 1012.44 1012.46 1012.45 1012.39 1012.30 1012.18 1012.02 1011.83 1011.62 1011.40 1011.17 1010.93 1010.70 1010.47 1010.25 1010.03 1009.83 1009.68 1009.57 1009.54 1009.60 1009.75 1009.99 1010.29 1010.63 1010.97 1011.28
1010.05 1010.11 1010.31 1010.64 1011.09 1011.58 1012.08 1012.51 1012.83 1013.04 1013.13 1013.13 1013.07 1013.00 1012.93 1012.88 1012.87 1012.88 1012.89 1012.91 1012.91 1012.89 1012.85 1012.79 1012.70 1012.59 1012.46 1012.30 1012.11 1011.89 1011.64 1011.37 1011.08 1010.78 1010.49 1010.20 1009.93 1009.68 1009.47 1009.31 1009.21 1009.19 1009.25 1009.41 1009.65 1009.96 1010.33 1010.70 1011.05
1010.11 1010.21 1010.46 1010.86 1011.35 1011.88 1012.39 1012.81 1013.13 1013.32 1013.40 1013.40 1013.37 1013.33 1013.30 1013.29 1013.31 1013.32 1013.33 1013.32 1013.27 1013.20 1013.10 1012.98 1012.85 1012.70 1012.55 1012.37 1012.16 1011.92 1011.63 1011.32 1010.98 1010.63 1010.28 1009.95 1009.65 1009.38 1009.17 1009.01 1008.91 1008.89 1008.95 1009.09 1009.32 1009.62 1009.97 1010.35 1010.72
1010.15 1010.30 1010.61 1011.05 1011.57 1012.10 1012.58 1012.97 1013.24 1013.38 1013.43 1013.42 1013.39 1013.36 1013.37 1013.40 1013.45 1013.49 1013.50 1013.48 1013.42 1013.31 1013.18 1013.03 1012.88 1012.73 1012.57 1012.39 1012.18 1011.93 1011.63 1011.28 1010.91 1010.52 1010.14 1009.78 1009.46 1009.19 1008.98 1008.83 1008.74 1008.71 1008.74 1008.85 1009.03 1009.27 1009.58 1009.93 1010.29
1010.18 1010.40 1010.76 1011.24 1011.77 1012.28 1012.72 1013.04 1013.23 1013.30 1013.29 1013.23 1013.18 1013.16 1013.18 1013.24 1013.32 1013.39 1013.43 1013.42 1013.35 1013.25 1013.11 1012.97 1012.82 1012.68 1012.54 1012.38 1012.19 1011.94 1011.65 1011.30 1010.91 1010.50 1010.11 1009.75 1009.43 1009.17 1008.97 1008.83 1008.73 1008.68 1008.68 1008.73 1008.83 1009.00 1009.22 1009.50 1009.82
1010.21 1010.50 1010.93 1011.44 1011.98 1012.47 1012.85 1013.09 1013.19 1013.17 1013.07 1012.95 1012.86 1012.82 1012.84 1012.92 1013.02 1013.12 1013.18 1013.19 1013.15 1013.06 1012.94 1012.81 1012.69 1012.58 1012.47 1012.34 1012.18 1011.97 1011.69 1011.36 1010.98 1010.58 1010.20 1009.85 1009.56 1009.32 1009.14 1009.01 1008.91 1008.84 1008.79 1008.77 1008.78 1008.84 1008.96 1009.15 1009.38
1010.28 1010.64 1011.13 1011.69 1012.23 1012.69 1013.02 1013.18 1013.18 1013.06 1012.87 1012.68 1012.53 1012.46 1012.47 1012.55 1012.67 1012.78 1012.86 1012.89 1012.86 1012.79 1012.70 1012.60 1012.50 1012.43 1012.35 1012.27 1012.14 1011.97 1011.73 1011.42 1011.07 1010.71 1010.36 1010.05 1009.79 1009.59 1009.44 1009.33 1009.24 1009.16 1009.07 1008.98 1008.90 1008.86 1008.86 1008.93 1009.07
1010.38 1010.82 1011.37 1011.96 1012.51 1012.95 1013.23 1013.32 1013.24 1013.03 1012.76 1012.50 1012.29 1012.18 1012.16 1012.23 1012.34 1012.45 1012.54 1012.58 1012.56 1012.50 1012.42 1012.33 1012.26 1012.21 1012.17 1012.12 1012.03 1011.89 1011.69 1011.43 1011.12 1010.81 1010.50 1010.24 1010.03 1009.88 1009.77 1009.70 1009.63 1009.55 1009.44 1009.31 1009.17 1009.04 1008.94 1008.90 1008.93
1010.54 1011.04 1011.63 1012.25 1012.81 1013.23 1013.47 1013.51 1013.36 1013.09 1012.76 1012.44 1012.18 1012.03 1011.98 1012.01 1012.10 1012.20 1012.27 1012.30 1012.27 1012.21 1012.12 1012.04 1011.97 1011.93 1011.89 1011.86 1011.80 1011.69 1011.52 1011.30 1011.04 1010.78 1010.53 1010.32 1010.17 1010.07 1010.02 1010.00 1009.97 1009.91 1009.82 1009.68 1009.51 1009.34 1009.18 1009.06 1009.00
1010.76 1011.29 1011.91 1012.54 1013.09 1013.49 1013.70 1013.70 1013.52 1013.21 1012.84 1012.48 1012.19 1012.00 1011.92 1011.92 1011.97 1012.04 1012.08 1012.07 1012.02 1011.92 1011.81 1011.71 1011.62 1011.56 1011.52 1011.48 1011.43 1011.33 1011.19 1011.00 1010.78 1010.56 1010.36 1010.20 1010.11 1010.07 1010.08 1010.11 1010.14 1010.14 1010.09 1009.99 1009.84 1009.67 1009.49 1009.34 1009.23
1011.01 1011.55 1012.17 1012.78 1013.32 1013.69 1013.88 1013.86 1013.66 1013.34 1012.96 1012.59 1012.28 1012.07 1011.95 1011.92 1011.93 1011.95 1011.94 1011.89 1011.79 1011.65 1011.50 1011.35 1011.23 1011.14 1011.07 1011.01 1010.93 1010.83 1010.69 1010.51 1010.32 1010.13 1009.96 1009.85 1009.80 1009.81 1009.88 1009.97 1010.07 1010.14 1010.16 1010.13 1010.05 1009.94 1009.80 1009.66 1009.54
1011.31 1011.82 1012.41 1012.98 1013.47 1013.81 1013.97 1013.93 1013.73 1013.42 1013.05 1012.69 1012.39 1012.17 1012.03 1011.96 1011.93 1011.90 1011.84 1011.73 1011.58 1011.39 1011.19 1010.99 1010.83 1010.69 1010.57 1010.47 1010.36 1010.23 1010.07 1009.89 1009.70 1009.51 1009.37 1009.28 1009.25 1009.30 1009.41 1009.56 1009.72 1009.86 1009.97 1010.04 1010.06 1010.03 1009.98 1009.91 1009.83
1011.65 1012.11 1012.63 1013.13 1013.55 1013.84 1013.96 1013.91 1013.71 1013.42 1013.08 1012.75 1012.46 1012.25 1012.10 1012.01 1011.94 1011.85 1011.74 1011.59 1011.39 1011.15 1010.90 1010.66 1010.44 1010.25 1010.09 1009.93 1009.78 1009.60 1009.41 1009.20 1008.99 1008.80 1008.64 1008.55 1008.54 1008.60 1008.73 1008.91 1009.11 1009.32 1009.51 1009.67 1009.80 1009.89 1009.95 1009.97 1009.97
1012.01 1012.41 1012.85 1013.25 1013.58 1013.80 1013.86 1013.79 1013.60 1013.33 1013.03 1012.74 1012.48 1012.28 1012.14 1012.02 1011.92 1011.80 1011.65 1011.45 1011.21 1010.94 1010.66 1010.38 1010.12 1009.89 1009.67 1009.46 1009.25 1009.03 1008.79 1008.54 1008.29 1008.06 1007.89 1007.78 1007.74 1007.79 1007.92 1008.10 1008.32 1008.57 1008.82 1009.05 1009.27 1009.47 1009.64 1009.78 1009.88
Thickness
5826 5829 5830 5822 5809 5811 5823 5837 5845 5848 5853 5862 5863 5858 5853 5848 5840 5833 5852 5862 5858 5851 5841 5827 5821 5816 5813 5809 5806 5803 5800 5797 5794 5791 5788 5785 5782 5780 5777 5775 5773 5770 5768 5767 5765 5763 5761 5759 5757
5833 5832 5825 5817 5810 5821 5827 5840 5843 5848 5858 5865 5863 5858 5853 5853 5855 5852 5854 5856 5854 5848 5838 5828 5819 5815 5811 5807 5804 5801 5798 5794 5792 5789 5786 5784 5781 5778 5776 5773 5772 5770 5768 5765 5763 5761 5760 5758 5756
5834 5832 5821 5819 5820 5823 5827 5843 5847 5855 5863 5861 5857 5858 5853 5849 5851 5851 5854 5854 5850 5843 5835 5826 5816 5812 5808 5805 5801 5798 5795 5792 5789 5787 5784 5782 5779 5776 5774 5772 5770 5768 5766 5764 5762 5760 5758 5756 5754
5829 5823 5822 5818 5825 5836 5838 5847 5854 5854 5858 5860 5857 5852 5854 5853 5853 5854 5853 5851 5845 5839 5833 5822 5814 5809 5805 5801 5798 5795 5792 5789 5787 5784 5781 5779 5777 5774 5772 5770 5768 5766 5764 5762 5760 5758 5756 5754 5753
5829 5823 5819 5824 5831 5841 5850 5854 5856 5852 5851 5856 5855 5848 5846 5851 5855 5853 5849 5846 5841 5837 5831 5820 5811 5806 5802 5798 5795 5792 5789 5786 5783 5781 5778 5776 5774 5772 5770 5768 5765 5764 5762 5760 5758 5756 5754 5752 5751
5821 5823 5817 5824 5830 5839 5850 5856 5856 5853 5853 5855 5853 5847 5844 5850 5849 5847 5847 5843 5841 5836 5830 5817 5807 5803 5798 5794 5791 5788 5786 5783 5780 5778 5775 5773 5771 5769 5767 5765 5763 5761 5759 5757 5756 5754 5752 5751 5749
5818 5819 5818 5823 5826 5832 5843 5855 5852 5850 5849 5855 5858 5847 5843 5846 5847 5846 5842 5840 5838 5833 5827 5816 5807 5800 5795 5791 5788 5785 5783 5780 5778 5775 5773 5771 5769 5766 5764 5763 5761 5759 5757 5755 5753 5752 5750 5749 5748
5824 5819 5818 5825 5822 5828 5845 5851 5854 5852 5850 5861 5860 5846 5841 5844 5847 5843 5838 5835 5832 5828 5823 5816 5809 5802 5796 5791 5785 5782 5780 5778 5775 5773 5771 5768 5766 5764 5762 5761 5759 5757 5755 5753 5752 5750 5748 5747 5746
5818 5807 5813 5823 5822 5829 5844 5844 5853 5860 5854 5854 5856 5853 5853 5851 5845 5836 5828 5825 5822 5819 5817 5814 5808 5801 5796 5792 5787 5780 5777 5775 5772 5770 5768 5765 5766 5766 5763 5761 5758 5755 5753 5751 5750 5749 5747 5746 5745
5810 5805 5817 5828 5831 5832 5838 5840 5845 5846 5845 5843 5844 5845 5847 5844 5837 5829 5822 5818 5814 5811 5811 5810 5805 5799 5794 5791 5785 5781 5778 5775 5771 5771 5767 5764 5764 5763 5762 5759 5755 5752 5750 5749 5748 5747 5746 5745 5748
5811 5808 5821 5826 5832 5833 5833 5836 5843 5837 5832 5833 5835 5837 5837 5836 5831 5826 5821 5818 5813 5810 5807 5805 5800 5794 5791 5787 5783 5779 5777 5773 5769 5767 5763 5761 5760 5758 5757 5755 5753 5750 5749 5749 5749 5747 5748 5749 5750
5806 5812 5816 5821 5828 5826 5826 5829 5829 5827 5825 5833 5837 5839 5835 5830 5828 5825 5819 5815 5811 5807 5803 5801 5796 5790 5785 5783 5779 5775 5773 5770 5768 5764 5760 5758 5756 5754 5753 5751 5751 5750 5749 5748 5748 5747 5748 5748 5749
5800 5807 5815 5820 5822 5823 5822 5820 5818 5816 5823 5829 5831 5830 5828 5827 5824 5822 5818 5813 5807 5801 5799 5796 5792 5787 5782 5777 5773 5771 5768 5767 5763 5758 5755 5753 5751 5749 5748 5746 5745 5745 5745 5745 5744 5745 5746 5746 5747
5803 5805 5809 5814 5816 5817 5811 5811 5809 5804 5814 5816 5817 5816 5817 5816 5815 5813 5810 5805 5802 5798 5795 5793 5787 5782 5776 5771 5767 5764 5763 5759 5755 5752 5750 5746 5744 5743 5742 5742 5740 5741 5740 5741 5740 5742 5743 5743 5744
5799 5794 5802 5807 5809 5811 5808 5793 5788 5794 5802 5800 5800 5800 5801 5802 5802 5801 5799 5797 5796 5792 5789 5784 5780 5775 5770 5765 5761 5758 5756 5753 5748 5744 5741 5738 5737 5736 5735 5736 5736 5737 5737 5736 5736 5739 5740 5740 5741
5793 5789 5788 5795 5802 5804 5798 5781 5777 5788 5790 5784 5785 5785 5784 5785 5788 5789 5790 5788 5787 5783 5778 5775 5773 5767 5762 5757 5752 5751 5749 5746 5741 5736 5733 5730 5730 5729 5729 5729 5730 5731 5732 5733 5733 5734 5736 5737 5738
5785 5783 5783 5785 5793 5796 5793 5772 5768 5779 5778 5772 5773 5773 5773 5771 5773 5776 5778 5778 5776 5772 5768 5764 5761 5757 5753 5749 5745 5742 5740 5738 5733 5728 5725 5724 5723 5723 5724 5724 5725 5725 5728 5728 5730 5732 5732 5732 5732
5777 5781 5779 5776 5780 5783 5775 5762 5761 5766 5766 5763 5763 5761 5760 5759 5759 5763 5765 5765 5763 5761 5757 5753 5750 5746 5744 5741 5737 5734 5732 5731 5728 5724 5721 5720 5719 5719 5719 5720 5720 5721 5723 5723 5724 5724 5724 5726 5727
5778 5776 5773 5771 5775 5771 5761 5754 5752 5755 5755 5753 5752 5752 5750 5749 5752 5753 5754 5753 5751 5748 5745 5741 5738 5736 5734 5731 5728 5725 5724 5724 5723 5720 5717 5715 5714 5715 5715 5716 5716 5716 5718 5718 5719 5719 5720 5721 5723
5775 5771 5770 5766 5770 5766 5755 5748 5747 5747 5745 5745 5743 5742 5743 5743 5743 5743 5743 5742 5739 5736 5734 5731 5728 5726 5724 5722 5719 5718 5717 5718 5716 5714 5712 5711 5710 5710 5710 5711 5712 5712 5712 5711 5713 5713 5715 5718 5719
5774 5773 5772 5765 5762 5764 5757 5745 5743 5742 5743 5740 5738 5737 5737 5736 5735 5734 5733 5731 5729 5727 5724 5722 5718 5717 5715 5713 5713 5711 5710 5709 5708 5707 5707 5706 5705 5704 5703 5705 5706 5706 5707 5707 5708 5709 5707 5710 5713
5769 5779 5774 5765 5758 5760 5757 5747 5742 5741 5738 5734 5732 5731 5730 5729 5729 5727 5725 5722 5720 5718 5716 5713 5710 5708 5706 5705 5703 5700 5699 5698 5697 5697 5698 5698 5698 5697 5696 5697 5699 5700 5702 5702 5703 5705 5705 5703 5706
5772 5776 5772 5767 5762 5759 5758 5752 5743 5743 5735 5732 5729 5726 5725 5723 5722 5719 5717 5715 5713 5711 5709 5706 5702 5699 5697 5695 5693 5692 5691 5690 5690 5688 5687 5687 5688 5688 5688 5689 5691 5692 5694 5695 5696 5698 5697 5700 5701
5775 5771 5767 5767 5764 5745 5750 5745 5736 5741 5735 5731 5727 5723 5721 5719 5717 5714 5712 5710 5707 5705 5702 5699 5694 5690 5688 5686 5684 5681 5679 5678 5676 5676 5676 5677 5678 5678 5678 5678 5680 5682 5684 5685 5687 5689 5690 5692 5694
5771 5759 5747 5741 5741 5740 5748 5743 5729 5735 5735 5730 5725 5721 5720 5717 5714 5710 5707 5704 5700 5697 5694 5690 5685 5681 5678 5676 5673 5671 5669 5667 5665 5665 5666 5665 5667 5667 5665 5667 5667 5669 5671 5673 5676 5678 5681 5683 5684
5764 5760 5741 5728 5733 5741 5743 5735 5727 5731 5730 5727 5723 5720 5716 5713 5710 5706 5702 5699 5695 5692 5687 5682 5677 5672 5669 5666 5663 5660 5658 5658 5658 5655 5654 5654 5654 5654 5653 5653 5653 5655 5657 5660 5662 5666 5669 5672 5674
5760 5760 5760 5748 5744 5735 5740 5731 5722 5725 5724 5721 5718 5714 5711 5708 5705 5702 5698 5694 5690 5685 5680 5674 5668 5663 5660 5656 5653 5650 5647 5645 5644 5642 5641 5642 5640 5640 5640 5640 5640 5641 5642 5644 5647 5650 5653 5657 5661
5766 5760 5753 5743 5722 5720 5731 5725 5715 5715 5715 5717 5713 5710 5707 5704 5700 5696 5692 5687 5682 5677 5671 5666 5660 5655 5651 5647 5644 5642 5639 5635 5632 5630 5629 5628 5627 5626 5625 5626 5626 5627 5627 5629 5630 5634 5638 5641 5646
5754 5752 5747 5744 5735 5719 5714 5717 5722 5714 5712 5710 5709 5706 5701 5697 5693 5689 5685 5680 5673 5668 5662 5657 5652 5646 5642 5637 5634 5629 5626 5623 5620 5618 5616 5614 5613 5612 5611 5611 5612 5612 5613 5615 5616 5618 5622 5625 5629
5751 5743 5740 5727 5722 5723 5718 5715 5721 5715 5711 5707 5703 5700 5696 5691 5687 5682 5676 5670 5663 5657 5652 5646 5641 5636 5632 5628 5623 5619 5615 5611 5608 5606 5604 5602 5600 5599 5598 5597 5597 5598 5600 5601 5602 5604 5608 5611 5615